Home   Weather   Kairouan   Past weeks

Flag for Tunisia Past Weather in Kairouan, Tunisia — Yesterday and Last 2 Weeks

Now
77 °F

Passing clouds.


Feels Like: 79 °F
Forecast: 71 / 88 °F
Wind: No wind

Location: Kairouan Airport

Current Time: Sep 30, 2016 at 7:48:20 PM

Latest Report: Sep 30, 2016 at 7:00 PM


Visibility: N/A

Pressure: 30.07 "Hg

Humidity: 74%

Dew Point: 68 °F

Location of KairouanLocation

Past Weather in Kairouan — Graph

°F

Kairouan Temperature Yesterday

Maximum temperature yesterday: 70 °F (at 4:00 PM)
Minimum temperature yesterday: 66 °F (at 12:00 AM)
Average temperature yesterday: 67 °F

High & Low Weather Summary for the Past Weeks

 TemperatureHumidityPressure
High95 °F (Sep 16, 3:00 PM)88% (Sep 29, 10:00 AM)30.30 "Hg (Sep 29, 10:00 AM)
Low64 °F (Sep 27, 4:00 AM)28% (Sep 22, 3:00 PM)29.86 "Hg (Sep 18, 4:00 PM)
Average76 °F61%30.08 "Hg
* Reported Sep 15 6:00 PM — Sep 30 6:00 PM, Kairouan, Weather by CustomWeather, © 2016

Note: Actual official high and low records may vary slightly from our data, if they occured in-between our weather recording intervals... More about our weather records

Advertising

Kairouan Weather History for the Previous 24 Hours

Scroll right to see more
 ConditionsComfort  
Time TempWeatherWind HumidityBarometerVisibility
6:00 PM
Fri, Sep 30
79 °FScattered clouds.No wind70%30.07 "HgN/A
5:00 PM81 °FPartly sunny.No wind66%30.04 "HgN/A
4:00 PM82 °FPartly sunny.No wind62%30.07 "HgN/A
3:00 PM82 °FPartly sunny.No wind58%30.07 "HgN/A
2:00 PM84 °FPartly sunny.No wind51%30.07 "HgN/A
1:00 PM81 °FPartly sunny.No wind66%30.09 "HgN/A
12:00 PM81 °FPartly sunny.No wind66%30.12 "Hg5 mi
11:00 AM79 °FPartly sunny.No wind70%30.15 "Hg5 mi
10:00 AM77 °FPassing clouds.No wind74%30.15 "Hg5 mi
9:00 AM73 °FPassing clouds.2 mph78%30.12 "Hg5 mi
8:00 AM70 °FScattered clouds.2 mph83%30.12 "Hg4 mi
7:00 AM68 °FPartly sunny.No wind83%30.12 "Hg4 mi
6:00 AM68 °FPassing clouds.No wind83%30.12 "Hg4 mi
5:00 AM68 °FPassing clouds.No wind83%30.12 "Hg4 mi
4:00 AM68 °FPassing clouds.No wind83%30.12 "Hg4 mi
3:00 AM68 °FMild.No wind83%30.12 "HgN/A
2:00 AM68 °FPassing clouds.No wind83%30.15 "Hg4 mi
1:00 AM68 °FPassing clouds.2 mph83%30.18 "Hg4 mi
12:00 AM68 °FPassing clouds.No wind83%30.21 "Hg4 mi
11:00 PM
Thu, Sep 29
68 °FPassing clouds.No wind83%30.21 "Hg4 mi
10:00 PM68 °FPassing clouds.No wind83%30.21 "Hg4 mi
9:00 PM68 °FPassing clouds.2 mph83%30.21 "Hg4 mi
8:00 PM68 °FPassing clouds.2 mph83%30.21 "Hg4 mi
7:00 PM68 °FPartly cloudy.No wind83%30.21 "Hg4 mi
Weather by CustomWeather, © 2016

See weather overviewHow to use our weather pages